• In Sweden
  • List of Countries
  • For 7 days
  • Water Temperature
  • Satellite Maps
  • Weather Map
  • Weather Widgets
  • user-avatar
    Login

    Hourly Weather London

    Today, 22 November, Wednesday

    Time Temperature Precipitation Wind Pressure Humidity
    00:00 +12°C° 0 mm 7 mps 752 mmHg 85%
    01:00 +12°C° 0 mm 7 mps 751 mmHg 83%
    02:00 +12°C° 0 mm 8 mps 751 mmHg 82%
    03:00 +12°C° 0 mm 8 mps 751 mmHg 81%
    04:00 +12°C° 0 mm 8 mps 750 mmHg 81%
    05:00 +12°C° 0 mm 8 mps 750 mmHg 81%
    06:00 +12°C° 0 mm 8 mps 750 mmHg 81%
    07:00 +12°C° 0 mm 8 mps 749 mmHg 78%
    08:00 +12°C° 0 mm 9 mps 749 mmHg 76%
    09:00 +12°C° 0 mm 9 mps 749 mmHg 74%
    10:00 +13°C° 0 mm 9 mps 749 mmHg 70%
    11:00 +14°C° 0 mm 10 mps 748 mmHg 66%
    12:00 +14°C° 0 mm 10 mps 748 mmHg 62%
    13:00 +14°C° 0 mm 10 mps 747 mmHg 62%
    14:00 +14°C° 0 mm 10 mps 746 mmHg 62%
    15:00 +13°C° 0 mm 9 mps 746 mmHg 62%
    16:00 +13°C° 0 mm 10 mps 745 mmHg 60%
    17:00 +14°C° 0 mm 10 mps 744 mmHg 59%
    18:00 +14°C° 0 mm 11 mps 744 mmHg 58%
    19:00 +14°C° 0.2 mm 11 mps 743 mmHg 62%
    20:00 +14°C° 0.2 mm 12 mps 743 mmHg 66%
    21:00 +13°C° 0.2 mm 12 mps 742 mmHg 71%
    22:00 +13°C° 0.3 mm 12 mps 741 mmHg 70%
    23:00 +13°C° 0.3 mm 12 mps 741 mmHg 69%

    Tomorrow, 23 November, Thursday

    Time Temperature Precipitation Wind Pressure Humidity
    00:00 +13°C° 0.3 mm 13 mps 740 mmHg 68%
    01:00 +13°C° 0.8 mm 12 mps 740 mmHg 71%
    02:00 +13°C° 0.8 mm 12 mps 739 mmHg 75%
    03:00 +13°C° 0.8 mm 11 mps 739 mmHg 78%
    04:00 +13°C° 0.5 mm 11 mps 739 mmHg 79%
    05:00 +13°C° 0.5 mm 10 mps 740 mmHg 79%
    06:00 +13°C° 0.5 mm 9 mps 740 mmHg 80%
    07:00 +12°C° 0.1 mm 9 mps 742 mmHg 77%
    08:00 +11°C° 0.1 mm 9 mps 743 mmHg 74%
    09:00 +10°C° 0.1 mm 9 mps 745 mmHg 72%
    10:00 +10°C° 0 mm 9 mps 746 mmHg 66%
    11:00 +10°C° 0 mm 9 mps 747 mmHg 61%
    12:00 +10°C° 0 mm 9 mps 749 mmHg 55%
    13:00 +10°C° 0 mm 8 mps 750 mmHg 56%
    14:00 +10°C° 0 mm 7 mps 751 mmHg 57%
    15:00 +9°C° 0 mm 6 mps 751 mmHg 58%
    16:00 +9°C° 0 mm 5 mps 752 mmHg 60%
    17:00 +10°C° 0 mm 4 mps 752 mmHg 62%
    18:00 +9°C° 0 mm 3 mps 753 mmHg 64%
    19:00 +9°C° 0.8 mm 3 mps 753 mmHg 70%
    20:00 +9°C° 0.8 mm 2 mps 752 mmHg 76%
    21:00 +9°C° 0.8 mm 1 mps 752 mmHg 82%
    22:00 +8°C° 1.9 mm 3 mps 751 mmHg 84%
    23:00 +8°C° 1.9 mm 4 mps 751 mmHg 86%

    Day after tomorrow, 24 November, Friday

    Time Temperature Precipitation Wind Pressure Humidity
    00:00 +8°C° 1.9 mm 5 mps 750 mmHg 87%
    01:00 +7°C° 0.1 mm 5 mps 750 mmHg 86%
    02:00 +6°C° 0.1 mm 4 mps 751 mmHg 84%
    03:00 +6°C° 0.1 mm 4 mps 751 mmHg 82%
    04:00 +5°C° 0 mm 3 mps 752 mmHg 82%
    05:00 +5°C° 0 mm 3 mps 752 mmHg 81%
    06:00 +6°C° 0 mm 2 mps 753 mmHg 81%
    07:00 +6°C° 0 mm 2 mps 754 mmHg 80%
    08:00 +7°C° 0 mm 1 mps 754 mmHg 79%
    09:00 +7°C° 0 mm 1 mps 755 mmHg 78%
    10:00 +7°C° 0 mm 1 mps 755 mmHg 73%
    11:00 +8°C° 0 mm 1 mps 755 mmHg 68%
    12:00 +9°C° 0 mm 1 mps 756 mmHg 62%
    13:00 +9°C° 0 mm 1 mps 756 mmHg 64%
    14:00 +9°C° 0 mm 1 mps 756 mmHg 65%
    15:00 +9°C° 0 mm 1 mps 756 mmHg 66%
    16:00 +8°C° 0 mm 1 mps 756 mmHg 69%
    17:00 +8°C° 0 mm 1 mps 755 mmHg 72%
    18:00 +7°C° 0 mm 1 mps 755 mmHg 74%
    19:00 +7°C° 0.1 mm 1 mps 755 mmHg 76%
    20:00 +7°C° 0.1 mm 1 mps 755 mmHg 78%
    21:00 +6°C° 0.1 mm 0 mps 755 mmHg 80%
    22:00 +7°C° 0.3 mm 1 mps 755 mmHg 81%
    23:00 +6°C° 0.3 mm 2 mps 755 mmHg 82%

    25 November, Saturday

    Time Temperature Precipitation Wind Pressure Humidity
    00:00 +5°C° 0.3 mm 3 mps 755 mmHg 84%
    01:00 +4°C° 0.2 mm 3 mps 755 mmHg 83%
    02:00 +4°C° 0.2 mm 4 mps 755 mmHg 82%
    03:00 +3°C° 0.2 mm 5 mps 755 mmHg 80%
    04:00 +2°C° 0 mm 5 mps 755 mmHg 76%
    05:00 +2°C° 0 mm 5 mps 755 mmHg 72%
    06:00 +2°C° 0 mm 5 mps 756 mmHg 68%
    07:00 +2°C° 0 mm 5 mps 757 mmHg 68%
    08:00 +2°C° 0 mm 5 mps 757 mmHg 68%
    09:00 +1°C° 0 mm 5 mps 758 mmHg 69%
    10:00 +2°C° 0 mm 6 mps 759 mmHg 65%
    11:00 +3°C° 0 mm 6 mps 759 mmHg 61%
    12:00 +4°C° 0 mm 7 mps 759 mmHg 58%
    13:00 +4°C° 0 mm 7 mps 759 mmHg 59%
    14:00 +4°C° 0 mm 7 mps 760 mmHg 60%
    15:00 +4°C° 0 mm 6 mps 760 mmHg 61%
    16:00 +3°C° 0 mm 6 mps 760 mmHg 62%
    17:00 +3°C° 0 mm 6 mps 761 mmHg 64%
    18:00 +2°C° 0 mm 6 mps 761 mmHg 65%
    19:00 +2°C° 0 mm 6 mps 761 mmHg 66%
    20:00 +1°C° 0 mm 6 mps 762 mmHg 67%
    21:00 +1°C° 0 mm 6 mps 762 mmHg 67%
    22:00 +1°C° 0 mm 6 mps 762 mmHg 68%
    23:00 +1°C° 0 mm 6 mps 762 mmHg 69%

    26 November, Sunday

    Time Temperature Precipitation Wind Pressure Humidity
    00:00 +1°C° 0 mm 6 mps 762 mmHg 69%
    01:00 +1°C° 0 mm 6 mps 762 mmHg 70%
    02:00 +1°C° 0 mm 6 mps 762 mmHg 71%
    03:00 +2°C° 0 mm 7 mps 762 mmHg 73%
    04:00 +2°C° 0.1 mm 6 mps 763 mmHg 74%
    05:00 +2°C° 0.1 mm 6 mps 763 mmHg 76%
    06:00 +2°C° 0.1 mm 6 mps 763 mmHg 78%
    07:00 +2°C° 0 mm 6 mps 763 mmHg 78%
    08:00 +2°C° 0 mm 6 mps 764 mmHg 78%
    09:00 +2°C° 0 mm 6 mps 764 mmHg 78%
    10:00 +3°C° 0 mm 6 mps 764 mmHg 74%
    11:00 +4°C° 0 mm 6 mps 764 mmHg 71%
    12:00 +4°C° 0 mm 6 mps 764 mmHg 67%
    13:00 +4°C° 0 mm 6 mps 764 mmHg 68%
    14:00 +5°C° 0 mm 5 mps 764 mmHg 69%
    15:00 +5°C° 0 mm 5 mps 764 mmHg 70%
    16:00 +5°C° 0 mm 5 mps 765 mmHg 73%
    17:00 +4°C° 0 mm 4 mps 765 mmHg 75%
    18:00 +3°C° 0 mm 4 mps 765 mmHg 77%
    19:00 +3°C° 0 mm 4 mps 766 mmHg 79%
    20:00 +2°C° 0 mm 5 mps 766 mmHg 80%
    21:00 +2°C° 0 mm 5 mps 766 mmHg 81%
    22:00 +3°C° 0 mm 4 mps 766 mmHg 81%
    23:00 +1°C° 0 mm 4 mps 766 mmHg 82%

    27 November, Monday

    Time Temperature Precipitation Wind Pressure Humidity
    00:00 +1°C° 0 mm 4 mps 766 mmHg 83%
    01:00 +1°C° 0 mm 4 mps 766 mmHg 83%
    02:00 +1°C° 0 mm 4 mps 766 mmHg 83%
    03:00 +1°C° 0 mm 4 mps 765 mmHg 83%
    04:00 +1°C° 0 mm 4 mps 765 mmHg 81%
    05:00 +1°C° 0 mm 4 mps 764 mmHg 80%
    06:00 +3°C° 0 mm 4 mps 764 mmHg 79%
    07:00 +3°C° 0 mm 4 mps 763 mmHg 78%
    08:00 +3°C° 0 mm 5 mps 762 mmHg 77%
    09:00 +5°C° 0 mm 5 mps 762 mmHg 76%
    10:00 +5°C° 0.1 mm 6 mps 761 mmHg 76%
    11:00 +7°C° 0.1 mm 6 mps 760 mmHg 75%
    12:00 +8°C° 0.1 mm 7 mps 759 mmHg 74%
    13:00 +8°C° 0.7 mm 7 mps 757 mmHg 76%
    14:00 +6°C° 0.7 mm 7 mps 756 mmHg 78%
    15:00 +6°C° 0.7 mm 8 mps 755 mmHg 79%
    16:00 +6°C° 0.5 mm 8 mps 754 mmHg 80%
    17:00 +6°C° 0.5 mm 8 mps 752 mmHg 81%
    18:00 +6°C° 0.5 mm 9 mps 751 mmHg 81%
    19:00 +6°C° 1.2 mm 9 mps 750 mmHg 83%
    20:00 +5°C° 1.2 mm 8 mps 749 mmHg 85%
    21:00 +5°C° 1.2 mm 8 mps 748 mmHg 87%
    22:00 +4°C° 0.6 mm 7 mps 748 mmHg 85%
    23:00 +3°C° 0.6 mm 6 mps 747 mmHg 84%
    Show more